Location: Bay Ridge
(40.6340°N, 74.0146°W)
Time: 03:55:26
(UTC+00:00)

Cosmos 2100 Rocket - Visible Passes

Search period start: 28 February 2020 00:00
Search period end: 09 March 2020 00:00
Orbit: 955 x 1001 km, 82.9° (Epoch: 27 February)

Date Brightness Start Highest point End Pass type
(mag) Time Alt. Az. Time Alt. Az. Time Alt. Az.
28 Feb 5.9 07:59:26 10° NNE 08:04:24 25° ENE 08:09:18 10° SE visible
28 Feb 4.1 09:44:12 10° NNW 09:50:05 48° W 09:55:55 10° SSW visible
28 Feb 6.6 23:15:27 10° WSW 23:20:14 22° WNW 23:25:01 10° NNW visible
29 Feb 4.9 08:25:04 10° N 08:30:58 45° ENE 08:36:48 10° SSE visible
29 Feb 4.8 10:11:08 10° NNW 10:16:03 26° W 10:20:58 10° SW visible
29 Feb 7.0 23:44:53 10° W 23:47:04 12° WNW 23:49:14 10° NW visible
01 Mar 6.7 07:08:48 10° NE 07:10:53 12° ENE 07:12:59 10° E visible
01 Mar 3.9 08:51:07 10° N 08:57:20 83° E 09:03:28 10° S visible
01 Mar 5.5 10:39:07 10° NW 10:41:51 13° W 10:44:35 10° WSW visible
02 Mar 6.0 07:33:01 10° NNE 07:37:43 22° ENE 07:38:55 21° E visible
02 Mar 4.0 09:17:33 10° NNW 09:31:17 - S 09:23:29 54° W visible
03 Mar 5.1 07:58:32 10° N 08:03:25 38° NE 08:03:25 38° NE visible
03 Mar 4.9 09:44:22 10° NNW 09:48:04 26° WNW 09:48:04 26° WNW visible
03 Mar 6.9 23:17:28 10° W 23:20:21 13° WNW 23:23:14 10° NW visible
04 Mar 6.7 06:43:26 10° NE 06:43:54 10° ENE 06:43:54 10° ENE visible
04 Mar 4.8 08:24:32 10° N 08:28:33 43° N 08:28:33 43° N visible
04 Mar 5.7 10:12:02 10° NW 10:13:13 13° WNW 10:13:13 13° WNW visible
05 Mar 6.3 07:06:38 10° NNE 07:09:17 18° NE 07:09:17 18° NE visible
05 Mar 5.1 08:50:53 10° NNW 08:53:57 30° NNW 08:53:57 30° NNW visible
06 Mar 5.8 07:32:02 10° N 07:34:50 24° NNE 07:34:50 24° NNE visible
06 Mar 5.5 09:17:37 10° NNW 09:19:32 19° NW 09:19:32 19° NW visible
07 Mar 5.6 07:57:58 10° N 08:00:30 26° N 08:00:30 26° N visible
07 Mar 6.0 09:45:03 10° NW 09:45:11 10° NW 09:45:11 10° NW visible
08 Mar 6.5 06:40:17 10° NNE 06:41:33 14° NE 06:41:33 14° NE visible
08 Mar 5.6 08:24:15 10° NNW 08:26:15 22° NNW 08:26:15 22° NNW visible
